Escanaba, MI

3:46 AM EDT on July 27, 2017 (GMT -0400)
Delta County

Weather History for KESC - December, 2014

Change the Weather History Date:

Tuesday, December 30, 2014

  Actual Average Record
Temperature  
Mean Temperature 5 °F -  
Max Temperature 10 °F 25 °F 41 °F (2002)
Min Temperature 0 °F 9 °F -23 °F (1976)
Degree Days  
Heating Degree Days 60    
Moisture  
Dew Point -4 °F    
Average Humidity 73    
Maximum Humidity 85    
Minimum Humidity 62    
Precipitation  
Precipitation 0.00 in - - ()
Sea Level Pressure  
Sea Level Pressure 30.49 in    
Wind  
Wind Speed 11 mph (West)    
Max Wind Speed 16 mph    
Max Gust Speed 18 mph    
Visibility 10 miles    
Events      
Averages and records for this station are not official NWS values.
T = Trace of Precipitation, MM = Missing Value Source: NWS Daily Summary

Daily Weather History Graph

Daily Weather History Graph

Search for Another Location

Airport or City:

Trip Planner

Search our weather history database for the weather conditions in past years. The results will help you decide how hot, cold, wet, or windy it might be!

Date:

Astronomy

Dec. 30, 2014 Rise Set
Actual Time 8:29 AM EST 5:12 PM EST
Civil Twilight 7:54 AM EST 5:47 PM EST
Nautical Twilight 7:17 AM EST 6:24 PM EST
Astronomical Twilight 6:40 AM EST 7:01 PM EST
Moon 1:35 PM EST (12/30) 2:39 AM EST (12/30)
Length of Visible Light 9h 52m
Length of Day
8h 43m
Waxing Gibbous, 71% of the Moon is Illuminated
Dec 30
Waxing Gibbous
Jan 4
Full
Jan 13
Last Quarter
Jan 20
New
Jan 26
First Quarter

Hourly Weather History & Observations

Time (EST) Temp. Windchill Dew Point Humidity Pressure Visibility Wind Dir Wind Speed Gust Speed Precip Events Conditions
12:15 AM 1.4 °F -13.5 °F -2.2 °F 85% 30.49 in 10.0 mi West 9.2 mph - N/A   Clear
12:35 AM 1.4 °F -13.5 °F -4.0 °F 78% 30.49 in 10.0 mi West 9.2 mph - N/A   Clear
12:55 AM 1.4 °F -14.5 °F -4.0 °F 78% 30.49 in 10.0 mi West 10.4 mph - N/A   Clear
1:15 AM 1.4 °F -15.3 °F -2.2 °F 85% 30.49 in 10.0 mi West 11.5 mph - N/A   Clear
1:35 AM 1.4 °F -16.1 °F -2.2 °F 85% 30.49 in 10.0 mi West 12.7 mph - N/A   Clear
1:55 AM 1.4 °F -14.5 °F -4.0 °F 78% 30.49 in 10.0 mi West 10.4 mph - N/A   Clear
2:15 AM 1.4 °F -15.3 °F -4.0 °F 78% 30.49 in 10.0 mi West 11.5 mph - N/A   Clear
2:35 AM 1.4 °F -15.3 °F -5.8 °F 72% 30.50 in 10.0 mi West 11.5 mph - N/A   Clear
2:55 AM 1.4 °F -14.5 °F -4.0 °F 78% 30.50 in 10.0 mi West 10.4 mph - N/A   Clear
3:15 AM 1.4 °F -14.5 °F -5.8 °F 72% 30.50 in 10.0 mi West 10.4 mph - N/A   Clear
3:35 AM -0.4 °F -16.7 °F -5.8 °F 78% 30.51 in 10.0 mi WNW 10.4 mph - N/A   Clear
3:55 AM -0.4 °F -15.7 °F -5.8 °F 78% 30.51 in 10.0 mi WNW 9.2 mph - N/A   Clear
4:15 AM -0.4 °F -16.7 °F -5.8 °F 78% 30.51 in 10.0 mi WNW 10.4 mph - N/A   Clear
4:35 AM 1.4 °F -15.3 °F -4.0 °F 78% 30.50 in 10.0 mi WNW 11.5 mph - N/A   Clear
4:55 AM 1.4 °F -15.3 °F -5.8 °F 72% 30.50 in 10.0 mi WNW 11.5 mph - N/A   Clear
5:15 AM 1.4 °F -13.5 °F -5.8 °F 72% 30.51 in 10.0 mi WNW 9.2 mph - N/A   Clear
5:35 AM -0.4 °F -14.7 °F -5.8 °F 78% 30.50 in 10.0 mi WNW 8.1 mph - N/A   Clear
5:55 AM -0.4 °F -15.7 °F -7.6 °F 72% 30.50 in 10.0 mi WNW 9.2 mph - N/A   Clear
6:15 AM -0.4 °F -16.7 °F -5.8 °F 78% 30.51 in 10.0 mi West 10.4 mph - N/A   Clear
6:35 AM -0.4 °F -14.7 °F -7.6 °F 72% 30.51 in 10.0 mi West 8.1 mph - N/A   Clear
6:55 AM -0.4 °F -15.7 °F -5.8 °F 78% 30.52 in 10.0 mi WNW 9.2 mph - N/A   Clear
7:15 AM -0.4 °F -16.7 °F -7.6 °F 72% 30.52 in 10.0 mi WNW 10.4 mph - N/A   Clear
7:35 AM -0.4 °F -16.7 °F -7.6 °F 72% 30.52 in 10.0 mi West 10.4 mph - N/A   Clear
7:55 AM -0.4 °F -17.6 °F -7.6 °F 72% 30.52 in 10.0 mi WNW 11.5 mph - N/A   Clear
8:15 AM -0.4 °F -18.4 °F -7.6 °F 72% 30.52 in 10.0 mi WNW 12.7 mph - N/A   Clear
8:35 AM -0.4 °F -17.6 °F -7.6 °F 72% 30.52 in 10.0 mi West 11.5 mph - N/A   Clear
8:55 AM -0.4 °F -17.6 °F -7.6 °F 72% 30.52 in 10.0 mi WNW 11.5 mph - N/A   Clear
9:15 AM -0.4 °F -17.6 °F -7.6 °F 72% 30.53 in 10.0 mi West 11.5 mph - N/A   Clear
9:35 AM -0.4 °F -17.6 °F -7.6 °F 72% 30.53 in 10.0 mi WNW 11.5 mph - N/A   Clear
9:55 AM -0.4 °F -18.4 °F -5.8 °F 78% 30.53 in 10.0 mi West 12.7 mph 17.3 mph N/A   Clear
10:15 AM 1.4 °F -16.1 °F -7.6 °F 66% 30.53 in 10.0 mi WNW 12.7 mph - N/A   Clear
10:35 AM 1.4 °F -16.9 °F -4.0 °F 78% 30.53 in 10.0 mi West 13.8 mph - N/A   Clear
10:55 AM 3.2 °F -13.9 °F -4.0 °F 72% 30.54 in 10.0 mi WNW 12.7 mph - N/A   Clear
11:15 AM 3.2 °F -15.3 °F -2.2 °F 78% 30.54 in 10.0 mi West 15.0 mph - N/A   Clear
11:35 AM 5.0 °F -11.6 °F -2.2 °F 72% 30.53 in 10.0 mi WNW 12.7 mph - N/A   Clear
11:55 AM 6.8 °F -10.7 °F -2.2 °F 67% 30.52 in 10.0 mi WNW 15.0 mph - N/A   Clear
12:15 PM 6.8 °F -10.0 °F -0.4 °F 72% 30.52 in 10.0 mi WNW 13.8 mph - N/A   Clear
12:35 PM 8.6 °F -7.7 °F -0.4 °F 67% 30.51 in 10.0 mi WNW 13.8 mph 17.3 mph N/A   Clear
12:55 PM 8.6 °F -8.9 °F -2.2 °F 62% 30.50 in 10.0 mi WNW 16.1 mph - N/A   Clear
1:15 PM 8.6 °F -6.3 °F -0.4 °F 67% 30.50 in 10.0 mi WNW 11.5 mph - N/A   Clear
1:35 PM 8.6 °F -7.7 °F -0.4 °F 67% 30.49 in 10.0 mi West 13.8 mph - N/A   Clear
1:55 PM 8.6 °F -8.3 °F -0.4 °F 67% 30.49 in 10.0 mi West 15.0 mph - N/A   Mostly Cloudy
2:15 PM 8.6 °F -6.3 °F -0.4 °F 67% 30.48 in 10.0 mi West 11.5 mph - N/A   Mostly Cloudy
2:35 PM 10.4 °F -4.8 °F 1.4 °F 67% 30.47 in 10.0 mi WNW 12.7 mph - N/A   Mostly Cloudy
2:55 PM 10.4 °F -4.1 °F 1.4 °F 67% 30.47 in 10.0 mi West 11.5 mph - N/A   Overcast
3:15 PM 10.4 °F -4.1 °F -0.4 °F 62% 30.47 in 10.0 mi West 11.5 mph - N/A   Overcast
3:35 PM 10.4 °F -6.0 °F 1.4 °F 67% 30.48 in 10.0 mi West 15.0 mph - N/A   Mostly Cloudy
3:55 PM 10.4 °F -4.1 °F 1.4 °F 67% 30.49 in 10.0 mi West 11.5 mph 18.4 mph N/A   Scattered Clouds
4:15 PM 10.4 °F -2.4 °F -0.4 °F 62% 30.49 in 10.0 mi West 9.2 mph - N/A   Partly Cloudy
4:35 PM 10.4 °F -2.4 °F -0.4 °F 62% 30.49 in 10.0 mi West 9.2 mph - N/A   Clear
4:55 PM 8.6 °F -2.6 °F -0.4 °F 67% 30.49 in 10.0 mi West 6.9 mph - N/A   Clear
5:15 PM 8.6 °F -3.7 °F -0.4 °F 67% 30.48 in 10.0 mi West 8.1 mph - N/A   Clear
5:35 PM 8.6 °F -1.3 °F 1.4 °F 73% 30.48 in 10.0 mi West 5.8 mph - N/A   Clear
5:55 PM 6.8 °F -3.5 °F 1.4 °F 79% 30.49 in 10.0 mi West 5.8 mph - N/A   Scattered Clouds
6:15 PM 6.8 °F -2.0 °F -0.4 °F 72% 30.49 in 10.0 mi West 4.6 mph - N/A   Overcast
6:35 PM 6.8 °F -4.8 °F 1.4 °F 79% 30.48 in 10.0 mi West 6.9 mph - N/A   Overcast
6:55 PM 6.8 °F -3.5 °F -0.4 °F 72% 30.48 in 10.0 mi West 5.8 mph - N/A   Mostly Cloudy
7:15 PM 5.0 °F -8.1 °F -0.4 °F 78% 30.48 in 10.0 mi West 8.1 mph - N/A   Clear
7:35 PM 5.0 °F -9.1 °F -2.2 °F 72% 30.49 in 10.0 mi West 9.2 mph - N/A   Clear
7:55 PM 5.0 °F -10.0 °F -0.4 °F 78% 30.48 in 10.0 mi West 10.4 mph - N/A   Clear
8:15 PM 3.2 °F -12.2 °F -2.2 °F 78% 30.48 in 10.0 mi West 10.4 mph - N/A   Clear
8:35 PM 3.2 °F -11.3 °F -2.2 °F 78% 30.48 in 10.0 mi West 9.2 mph - N/A   Clear
8:55 PM 3.2 °F -12.2 °F -4.0 °F 72% 30.47 in 10.0 mi West 10.4 mph - N/A   Clear
9:15 PM 3.2 °F -13.1 °F -2.2 °F 78% 30.47 in 10.0 mi West 11.5 mph - N/A   Clear
9:35 PM 1.4 °F -16.1 °F -5.8 °F 72% 30.46 in 10.0 mi West 12.7 mph - N/A   Clear
9:55 PM 1.4 °F -15.3 °F -4.0 °F 78% 30.46 in 10.0 mi West 11.5 mph - N/A   Clear
10:15 PM 1.4 °F -15.3 °F -5.8 °F 72% 30.45 in 10.0 mi West 11.5 mph - N/A   Clear
10:35 PM 1.4 °F -14.5 °F -7.6 °F 66% 30.46 in 10.0 mi West 10.4 mph - N/A   Clear
10:55 PM -0.4 °F -18.4 °F -5.8 °F 78% 30.45 in 10.0 mi West 12.7 mph - N/A   Clear
11:15 PM -0.4 °F -17.6 °F -7.6 °F 72% 30.45 in 10.0 mi West 11.5 mph - N/A   Clear
11:35 PM -0.4 °F -17.6 °F -5.8 °F 78% 30.44 in 10.0 mi West 11.5 mph - N/A   Clear
11:55 PM -0.4 °F -17.6 °F -7.6 °F 72% 30.44 in 10.0 mi West 11.5 mph - N/A   Clear